www.pogodaiklimat.ru

АРХИВ ПОГОДЫ в Екатеринбурге

Время (UTC), дата Ветер
(напр.,м/с)
 
Видим.   Явления Облачность Т
(С)
Тd
(С)
f
(%)
Тe
(С)
Тes
(С)
Комфортность P
(гПа)
Po
(гПа)
Тmin
(С)
Tmax
(С)
R
(мм)
S
(см)
03 11.01 З 5
{10}
4000 м ливневой снег {метель} 10/10 300 м
[Cb cap]
-17.2 -20.1 78 -27 -27 холодно 1014.5 977.4 -18.0 0.4 51
06 11.01 З 3
{10}
4000 м слабый ливневой снег {метель} 10/10 600 м
[Cb cap]
-15.0 -17.8 79 -22 -22 по сезону 1015.2 978.3
09 11.01 З 4 20 км позёмок {ливн. осадки, метель} 3/3 600 м
[Sc]
-13.0 -16.9 72 -20 -20 по сезону 1015.5 978.9
12 11.01 З 4 10 км в посл. час ливневой снег {метель} 4/4 600 м
[Cb calv]
-13.2 -15.9 80 -21 -21 прохладно 1016.9 980.2
15 11.01 З 4 10 км слабый снег 5/0
[As op]
-12.8 -15.1 83 -20 -20 по сезону 1018.6 981.9 -12.3 0.2
18 11.01 З 3 10 км {снег} ясно -12.5 -14.8 83 -19 -19 по сезону 1020.2 983.5
21 11.01 З 3 4000 м слабый снег 8/0
[As op]
-11.3 -13.4 84 -17 -17 по сезону 1021.5 984.9
00 12.01 З 4
{10}
4000 м слабый снег 9/0
[As op]
-11.1 -13.3 84 -18 -18 по сезону 1022.5 985.9
03 12.01 З 3 4000 м слабый снег 10/0
[As op]
-9.9 -11.9 85 -16 -16 по сезону 1022.6 986.2 -12.9 49
06 12.01 З 3 10 км {снег} 10/10 600 м
[Sc]
-8.5 -10.8 83 -14 -14 по сезону 1022.9 986.6
09 12.01 З 3 20 км 10/10 1000 м
[Sc]
-7.0 -9.4 83 -13 -13 по сезону 1022.9 986.8
12 12.01 З 3 10 км 10/10 1000 м
[Sc]
-6.7 -8.8 85 -12 -12 по сезону 1023.1 987.1
15 12.01 З 3 10 км 10/10 1000 м
[Sc]
-6.4 -8.5 85 -12 -12 по сезону 1022.6 986.6 -6.4 0.0
18 12.01 З 5
{11}
10 км 10/10 1000 м
[Sc]
-6.3 -8.1 87 -14 -14 по сезону 1021.2 985.3
21 12.01 З 4
{10}
10 км {снег} 10/10 1000 м
[Sc]
-6.5 -8.3 87 -13 -13 по сезону 1021.3 985.4
00 13.01 З 4 10 км {снег} 10/10 1000 м
[Sc]
-6.5 -8.1 88 -13 -13 по сезону 1021.4 985.5
03 13.01 З 5 10 км 10/10 1000 м
[Sc]
-6.6 -8.1 89 -14 -14 по сезону 1021.4 985.5 -6.6 0.0 48
06 13.01 З 3
{10}
4000 м слабый снег 10/0 600 м
[As op]
-6.7 -8.3 88 -12 -12 по сезону 1022.3 986.3 -6.9
09 13.01 З 5 20 км {снег} 9/8 600 м
[Cb calv Cs]
-6.0 -9.8 74 -13 -13 по сезону 1022.4 986.5
12 13.01 З 3
{10}
20 км {снег} 8/4 600 м
[Cb calv Cs]
-8.1 -10.8 81 -14 -14 по сезону 1024.5 988.2
15 13.01 З 4 10 км 3/0
[Ci fib]
-9.9 -12.5 81 -17 -17 по сезону 1025.4 988.8 -5.9 0.0
18 13.01 З 4 10 км ясно -11.5 -14.6 78 -19 -19 по сезону 1026.1 989.3
21 13.01 З 4
{10}
10 км ясно -12.0 -15.0 78 -19 -19 по сезону 1026.9 990.0
00 14.01 З 4 10 км ясно -13.2 -15.9 80 -21 -21 по сезону 1028.2 991.1
03 14.01 З 4 10 км ясно -14.5 -17.1 81 -22 -22 по сезону 1029.4 992.1 -14.5 48
06 14.01 З 3 10 км 8/0
[Ci fib]
-15.1 -17.8 80 -22 -21 прохладно 1030.0 992.6 -15.5
09 14.01 З 2 20 км 4/0
[Ci fib]
-10.7 -15.3 69 -15 -14 по сезону 1030.2 993.4
12 14.01 З 3 10 км 5/0
[Ci fib]
-11.3 -14.9 75 -17 -17 по сезону 1031.5 994.5
15 14.01 З 4 10 км ясно -12.2 -15.2 78 -19 -19 по сезону 1032.5 995.4 -9.6
18 14.01 З 2 10 км 10/0
[Cs]
-12.9 -15.4 81 -18 -18 по сезону 1032.7 995.5
21 14.01 З 2 10 км ясно -13.1 -15.3 83 -18 -18 по сезону 1033.4 996.1
00 15.01 З 3 10 км 6/0
[Ci fib]
-10.8 -12.2 89 -17 -17 по сезону 1034.0 997.1
03 15.01 З 2 4000 м дымка 9/3 600 м
[Cb cap Cs]
-10.7 -12.2 89 -15 -15 по сезону 1034.4 997.4 -13.1 47
06 15.01 З 1 20 км ясно -11.1 -12.7 88 -13 -13 по сезону 1035.3 998.2
09 15.01 СЗ 3 20 км 1/0
[Ci fib]
-9.0 -13.1 72 -15 -14 по сезону 1035.7 998.9
12 15.01 З 2 10 км 3/0
[Cs]
-9.4 -12.8 76 -14 -14 по сезону 1036.5 999.6
15 15.01 З 2 10 км ясно -11.1 -13.0 86 -16 -16 по сезону 1036.6 999.5 -7.9
18 15.01 ЮЗ 1 10 км ясно -11.6 -13.3 87 -14 -14 по сезону 1036.7 999.5
21 15.01 З 1 10 км ясно -11.7 -14.1 82 -14 -14 по сезону 1036.8 999.6
00 16.01 ЮЗ 1 10 км ясно -11.7 -14.5 80 -14 -14 по сезону 1037.4 1000.1
03 16.01 З 1 10 км ясно -10.9 -14.5 75 -13 -13 по сезону 1037.4 1000.2 -13.2 47
06 16.01 З 2 50 км ясно -9.4 -13.8 70 -14 -13 по сезону 1037.7 1000.8
09 16.01 З 2 50 км ясно -4.8 -12.5 55 -9 -8 тепло 1037.0 1000.7
12 16.01 ЮЗ 2 20 км ясно -5.1 -11.3 62 -9 -9 тепло 1037.7 1001.3
15 16.01 З 2 10 км ясно -7.3 -11.8 70 -12 -12 по сезону 1038.2 1001.6 -3.9
18 16.01 Ю 2 10 км ясно -10.9 -13.4 82 -15 -15 по сезону 1038.9 1001.7
21 16.01 ЮВ 1 10 км ясно -11.1 -15.0 73 -13 -13 по сезону 1039.2 1002.0
00 17.01 Ю 1 10 км ясно -12.1 -15.6 75 -14 -14 по сезону 1039.9 1002.5
03 17.01 Ю 1 10 км ясно -13.7 -16.3 81 -16 -16 по сезону 1039.9 1002.3 -13.9 47
06 17.01 штиль 0 10 км ясно -11.1 -14.9 73 -11 -11 тепло 1039.9 1002.6
09 17.01 Ю 1 4000 м дым ясно -5.9 -11.5 65 -8 -7 тепло 1038.5 1002.0
12 17.01 ЮВ 1 4000 м дым ясно -6.1 -10.4 72 -8 -8 тепло 1038.4 1001.9
15 17.01 ЮВ 1 4000 м дымка ясно -9.5 -11.7 84 -12 -12 по сезону 1038.4 1001.4 -2.9
18 17.01 ЮВ 1 4000 м дымка ясно -11.6 -13.2 88 -14 -14 по сезону 1037.6 1000.4
21 17.01 штиль 0 4000 м дымка ясно -13.4 -15.1 87 -13 -13 по сезону 1036.8 999.3
00 18.01 ЮВ 1 4000 м дымка ясно -15.4 -17.4 85 -18 -18 по сезону 1036.1 998.4

 

Местоположение метеостанции Екатеринбург (Свердловская область, Россия): широта 56.83 долгота 60.63 высота над уровнем моря 281 м.

В архиве по умолчанию представлена погода в Екатеринбурге за последнюю неделю. Архивные данные за месяц целиком и за предыдущие месяцы, начиная с января 2011 года, Вы можете получить, выбрав интересующий диапазон дат из раскрывающегося списка и нажав кнопку "Ввод!".

Внимание! Время в таблицах - всемирное. Для получения местного времени необходимо прибавить поправку, которая в Екатеринбурге равна 5 ч.

Ветер - указаны скорость ветра в м/с - средняя за 10 мин, порывы в срок и между сроками (в фигурных скобках) и направление, откуда дует ветер: С - северный, СВ - северо-восточный, В - восточный, ЮВ - юго-восточный, Ю - южный, ЮЗ - юго-западный, З - западный, СЗ - северо-западный.
Видимость - горизонтальная дальность видимости в метрах или километрах. При видимости от 1 до 10 км при отсутствии осадков обычно наблюдается дымка, при ухудшении видимости до 1 км и менее - туман. В сухую погоду видимость может ухудшаться дымом, пылью или мглою.
Явления - указаны атмосферные явления, наблюдавшиеся в срок или в последний час перед сроком; фигурными скобками обозначены явления, наблюдавшиеся между сроками (за 1-3 часа до срока); квадратными скобками обозначены град или гололедные отложения с указанием их диаметра в мм.
Облачность - указаны через наклонную черту общая и нижняя облачность в баллах и высота нижней границы облаков в метрах; квадратными скобками обозначены формы облаков: Ci - перистые, Cs - перисто-слоистые, Cc - перисто-кучевые, Ac - высококучевые, As - высокослоистые, Sc - слоисто-кучевые, Ns - слоисто-дождевые, Cu - кучевые, Cb - кучево-дождевые. Подробнее классификацию облаков см. в Атласе облаков (PDF).
T - Температура воздуха - температура, измеренная на высоте 2 м над землей.
Td - Температура точки росы - температура, при понижении до которой содержащийся в воздухе водяной пар достигнет насыщения.
f - Относительная влажность воздуха - влажноcть воздуха, измеренная на высоте 2 м над землей.
Te - Эффективная температура - температура, которую ощущает одетый по сезону человек в тени. Характеристика душности погоды. При расчете учитывается влияние влажности воздуха и скорости ветра на теплоощущения человека.
Tes - Эффективная температура на солнце - температура, которую ощущает человек, с поправкой на солнечный нагрев. Характеристика знойности погоды. Зависит от высоты солнца над горизонтом, облачности и скорости ветра. Ночью, в пасмурную погоду, а также при ветре 12 м/с и более поправка равна нулю.
P - Атмосферное давление - приведенное к уровню моря атмосферное давление.
Po - Атмосферное давление - измеренное на уровне метеостанции атмосферное давление.
Tmin - Минимальная температура - минимум температуры воздуха на высоте 2 м над землей.
Tmax - Максимальная температура - максимум температуры воздуха на высоте 2 м над землей.
R - Количество осадков - Количество выпавших осадков, мм. При наведении курсора мыши на число - период времени, за который выпало указанное количество осадков.
S - Снежный покров - Высота снежного покрова, см. При наведении курсора мыши на число - состояние снежного покрова и степень покрытия местности в баллах.